Home   Weather   Birmingham   Past weeks

Flag for USA Past Weather in Birmingham, Alabama, USA — Yesterday and Last 2 Weeks

Now
82 °F

Passing clouds.


Feels Like: 84 °F
Forecast: 71 / 89 °F
Wind: 9 mph from South

Location: Birmingham International Airport

Current Time: Apr 28, 2017 at 9:11:15 pm

Latest Report: Apr 28, 2017 at 7:53 pm


Visibility: 10 mi

Pressure: 29.96 "Hg

Humidity: 56%

Dew Point: 65 °F

Location of BirminghamLocation

Past Weather in Birmingham — Graph

°F

Birmingham Temperature Yesterday

Maximum temperature yesterday: 81 °F (at 3:53 pm)
Minimum temperature yesterday: 62 °F (at 11:53 pm)
Average temperature yesterday: 71 °F

High & Low Weather Summary for the Past Weeks

 TemperatureHumidityPressure
High88 °F (Apr 28, 2:53 pm)100% (Apr 25, 5:53 am)30.30 "Hg (Apr 25, 5:53 am)
Low51 °F (Apr 23, 11:30 pm)28% (Apr 14, 2:53 pm)29.65 "Hg (Apr 27, 2:53 am)
Average71 °F66%29.98 "Hg
* Reported Apr 13 6:53 pm — Apr 28 6:53 pm, Birmingham, Weather by CustomWeather, © 2017

Note: Actual official high and low records may vary slightly from our data, if they occured in-between our weather recording intervals... More about our weather records

Advertising

Birmingham Weather History for the Previous 24 Hours

Scroll right to see more
 ConditionsComfort  
Time TempWeatherWind HumidityBarometerVisibility
6:53 pm
Fri, Apr 28
84 °FPartly sunny.16 mph53%29.95 "Hg10 mi
5:53 pm86 °FBroken clouds.17 mph51%29.94 "Hg10 mi
4:53 pm86 °FPartly sunny.17 mph51%29.93 "Hg10 mi
3:53 pm87 °FScattered clouds.18 mph50%29.93 "Hg10 mi
2:53 pm88 °FScattered clouds.14 mph48%29.94 "Hg10 mi
1:53 pm87 °FPartly sunny.18 mph50%29.95 "Hg10 mi
12:53 pm84 °FPartly sunny.15 mph55%29.97 "Hg10 mi
11:53 am81 °FOvercast.17 mph60%29.98 "Hg10 mi
10:53 am78 °FMostly cloudy.15 mph71%29.98 "Hg10 mi
9:53 am77 °FMore clouds than sun.12 mph74%29.97 "Hg10 mi
9:18 am74 °FMostly cloudy.9 mph82%29.99 "Hg9 mi
9:08 am74 °FMostly cloudy.9 mph82%29.99 "Hg9 mi
7:53 am70 °FFog.8 mph90%29.95 "Hg6 mi
6:53 am69 °FFog.6 mph90%29.93 "Hg6 mi
6:23 am68 °FMostly cloudy.8 mph90%29.94 "Hg8 mi
5:53 am68 °FOvercast.5 mph87%29.91 "Hg10 mi
5:33 am68 °FMostly cloudy.5 mph84%29.93 "Hg10 mi
4:53 am67 °FMostly cloudy.5 mph76%29.90 "Hg10 mi
4:30 am67 °FMostly cloudy.No wind71%29.92 "Hg10 mi
3:53 am67 °FClear.5 mph71%29.88 "Hg10 mi
2:53 am65 °FClear.5 mph76%29.87 "Hg10 mi
1:53 am64 °FClear.No wind81%29.88 "Hg10 mi
12:53 am62 °FClear.No wind86%29.89 "Hg10 mi
11:53 pm
Thu, Apr 27
62 °FClear.No wind90%29.89 "Hg10 mi
10:53 pm64 °FClear.No wind84%29.87 "Hg10 mi
9:53 pm65 °FClear.No wind85%29.87 "Hg10 mi
Weather by CustomWeather, © 2017

See weather overviewHow to use our weather pages